Home   Weather   Gelendzhik   Past weeks

Flag for Russia Past Weather in Gelendzhik, Russia — Yesterday and Last 2 Weeks

Now
77 °F

Passing clouds.


Feels Like: 78 °F
Forecast: 67 / 80 °F
Wind: 1 mph from North

Location: Anapa / Vitiazevo

Current Time: Aug 30, 2016 at 10:07:56 PM

Latest Report: Aug 30, 2016 at 9:30 PM


Visibility: 6 mi

Pressure: 29.83 "Hg

Humidity: 89%

Dew Point: 73 °F

Location of GelendzhikLocation

Past Weather in Gelendzhik — Graph

°F

Gelendzhik Temperature Yesterday

Maximum temperature yesterday: 93 °F (at 1:00 PM)
Minimum temperature yesterday: 70 °F (at 10:00 PM)
Average temperature yesterday: 79 °F

High & Low Weather Summary for the Past Weeks

 TemperatureHumidityPressure
High99 °F (Aug 20, 4:30 PM)100% (Aug 19, 5:30 AM)30.07 "Hg (Aug 19, 5:30 AM)
Low59 °F (Aug 16, 1:30 AM)31% (Aug 16, 1:30 PM)29.77 "Hg (Aug 22, 3:30 AM)
Average78 °F71%29.89 "Hg
* Reported Aug 15 8:00 PM — Aug 30 8:30 PM, Gelendzhik, Weather by CustomWeather, © 2016

Note: Actual official high and low records may vary slightly from our data, if they occured in-between our weather recording intervals... More about our weather records

Advertising

Gelendzhik Weather History for the Previous 24 Hours

Scroll right to see more
 ConditionsComfort  
Time TempWeatherWind HumidityBarometerVisibility
8:30 PM
Tue, Aug 30
75 °FPassing clouds.8 mph89%29.83 "HgN/A
8:00 PM77 °FPassing clouds.3 mph83%29.83 "HgN/A
7:30 PM79 °FPassing clouds.3 mph79%29.86 "HgN/A
7:00 PM79 °FThunderstorms. Scattered clouds.8 mph79%29.86 "HgN/A
6:30 PM79 °FScattered clouds.6 mph84%29.86 "HgN/A
6:00 PM81 °FScattered clouds.10 mph79%29.83 "HgN/A
5:30 PM82 °FScattered clouds.10 mph70%29.86 "HgN/A
5:00 PM82 °FScattered clouds.13 mph74%29.86 "HgN/A
4:30 PM82 °FScattered clouds.15 mph74%29.83 "HgN/A
4:00 PM82 °FScattered clouds.13 mph74%29.83 "HgN/A
3:30 PM84 °FScattered clouds.15 mph70%29.83 "HgN/A
3:00 PM84 °FThundershowers. Scattered clouds.13 mph70%29.83 "HgN/A
2:30 PM84 °FPartly sunny.10 mph66%29.86 "HgN/A
2:00 PM86 °FThunderstorms. Partly sunny.10 mph66%29.86 "HgN/A
1:30 PM84 °FThunderstorms. Scattered clouds.15 mph70%29.86 "HgN/A
1:00 PM84 °FThunderstorms. Scattered clouds.15 mph70%29.86 "HgN/A
12:30 PM84 °FThundershowers. Scattered clouds.15 mph70%29.86 "HgN/A
12:00 PM84 °FScattered clouds.13 mph70%29.86 "HgN/A
11:30 AM84 °FScattered clouds.10 mph70%29.86 "HgN/A
11:00 AM84 °FScattered clouds.10 mph74%29.83 "HgN/A
10:30 AM82 °FScattered clouds.8 mph74%29.86 "HgN/A
10:00 AM82 °FScattered clouds.8 mph74%29.86 "HgN/A
9:00 AM81 °FScattered clouds.8 mph74%29.86 "HgN/A
8:30 AM81 °FScattered clouds.8 mph79%29.83 "HgN/A
8:00 AM81 °FScattered clouds.10 mph79%29.83 "HgN/A
7:30 AM79 °FScattered clouds.8 mph84%29.83 "HgN/A
7:00 AM77 °FWarm.6 mph83%29.83 "Hg4 mi
6:30 AM73 °FMild.8 mph89%29.83 "Hg4 mi
6:00 AM72 °FMild.6 mph83%29.83 "Hg6 mi
5:30 AM70 °FMild.6 mph78%29.83 "HgN/A
5:00 AM68 °FMild.3 mph78%29.83 "HgN/A
4:30 AM70 °FMild.6 mph73%29.83 "HgN/A
4:00 AM70 °FMild.6 mph73%29.83 "HgN/A
3:30 AM68 °FMild.3 mph78%29.83 "HgN/A
3:00 AM70 °FMild.3 mph73%29.83 "HgN/A
2:30 AM70 °FMild.8 mph78%29.83 "HgN/A
2:00 AM72 °FMild.8 mph73%29.83 "HgN/A
1:30 AM73 °FMild.10 mph69%29.83 "HgN/A
1:00 AM75 °FMild.8 mph69%29.83 "HgN/A
12:30 AM75 °FMild.13 mph69%29.86 "HgN/A
12:00 AM73 °FMild.10 mph78%29.86 "Hg5 mi
11:30 PM
Mon, Aug 29
72 °FPassing clouds.1 mph88%29.86 "Hg4 mi
11:00 PM72 °FPassing clouds.No wind88%29.86 "Hg4 mi
10:30 PM70 °FPassing clouds.1 mph88%29.86 "Hg4 mi
10:00 PM70 °FPassing clouds.1 mph88%29.86 "Hg6 mi
Weather by CustomWeather, © 2016

See weather overviewHow to use our weather pages